contact:dominique.lefevre@mio.osupytheas.fr, maurice.libes@osupytheas.fr, didier.mallarino@osupytheas.fr
Project:EMSO http://www.emso-fr.org/EMSO-France
Depth: 2436.0 m
Title:EMSO Ligure Ouest : Data MII capteur AQUADOPP
Date,Latitude,Longitude,X_East,Y_North,Z_Up,Amplitude_X,Amplitude_Y,Amplitude_Z,Batterie,SoundSpeed,Heading,Pitch,Roll,Pressure,TIS,Speed,Direction
, degrees North, degrees East, m.s-1, m.s-1,m.s-1, 1, 1, 1, Volt, m.s-1, degree, degree, degree, dbar, degree_C, m.s-1, degree
2021-12-28T00:04:03,42.805,6.029,-0.01,-0.011,-0.036,101.0,102.0,100.0,13.4,1505.2,328.6,-0.8,1.8,2470.26,13.28,0.014,222.3
2021-12-28T00:07:03,42.805,6.029,-0.008,-0.015,-0.062,100.0,101.0,99.0,13.4,1505.2,329.9,-0.7,1.8,2470.271,13.28,0.017,208.1
2021-12-28T00:10:03,42.805,6.029,-0.008,-0.01,-0.011,102.0,100.0,100.0,13.3,1505.2,324.9,-0.7,1.8,2470.244,13.28,0.012,218.7
2021-12-28T00:13:03,42.805,6.029,0.0,0.0,-0.032,101.0,101.0,100.0,13.4,1505.2,327.4,-0.7,1.8,2470.232,13.28,0.0,0.0
2021-12-28T00:16:03,42.805,6.029,0.009,-0.009,0.004,100.0,100.0,100.0,13.3,1505.2,327.3,-0.8,1.8,2470.265,13.28,0.012,135.0
2021-12-28T00:19:03,42.805,6.029,-0.022,-0.015,-0.036,100.0,101.0,100.0,13.4,1505.2,326.5,-0.7,1.8,2470.222,13.28,0.026,235.7
2021-12-28T00:22:03,42.805,6.029,-0.007,-0.007,0.01,101.0,102.0,99.0,13.4,1505.2,327.0,-0.8,1.8,2470.232,13.28,0.009,225.0
2021-12-28T00:25:03,42.805,6.029,-0.01,-0.022,-0.031,101.0,103.0,98.0,13.3,1505.2,327.0,-0.7,1.8,2470.192,13.28,0.024,204.4
2021-12-28T00:28:03,42.805,6.029,-0.012,-0.039,-0.048,101.0,102.0,100.0,13.4,1505.2,327.0,-0.8,1.8,2470.202,13.28,0.04,197.1
2021-12-28T00:31:03,42.805,6.029,-0.016,-0.008,-0.012,102.0,100.0,100.0,13.4,1505.2,327.4,-0.7,1.8,2470.221,13.28,0.017,243.4
2021-12-28T00:34:03,42.805,6.029,0.018,-0.013,-0.024,99.0,102.0,100.0,13.4,1505.2,327.0,-0.7,1.8,2470.133,13.28,0.022,125.8
2021-12-28T00:37:03,42.805,6.029,-0.029,-0.025,-0.059,100.0,100.0,100.0,13.3,1505.2,328.2,-0.7,1.8,2470.162,13.28,0.038,229.2
2021-12-28T00:40:03,42.805,6.029,0.012,-0.022,-0.004,100.0,99.0,100.0,13.4,1505.2,326.0,-0.8,1.8,2470.163,13.28,0.025,151.4
2021-12-28T00:43:03,42.805,6.029,-0.01,-0.008,-0.024,100.0,101.0,100.0,13.3,1505.2,328.2,-0.8,1.8,2470.144,13.28,0.012,231.3
2021-12-28T00:46:03,42.805,6.029,0.006,-0.011,-0.002,100.0,100.0,100.0,13.4,1505.2,330.1,-0.7,1.8,2470.108,13.28,0.012,151.4
2021-12-28T00:49:03,42.805,6.029,0.005,-0.016,-0.016,99.0,103.0,99.0,13.4,1505.2,326.4,-0.7,1.8,2470.162,13.28,0.016,162.6
2021-12-28T00:52:03,42.805,6.029,-0.004,-0.027,-0.017,101.0,100.0,100.0,13.4,1505.2,326.5,-0.8,1.8,2470.083,13.28,0.027,188.4
2021-12-28T00:55:03,42.805,6.029,-0.005,-0.013,-0.007,101.0,101.0,100.0,13.4,1505.2,331.7,-0.7,1.8,2470.149,13.28,0.013,201.0
2021-12-28T00:58:03,42.805,6.029,0.015,-0.018,-0.044,101.0,100.0,101.0,13.4,1505.2,324.1,-0.8,1.8,2470.117,13.28,0.023,140.2
2021-12-28T01:04:03,42.805,6.029,-0.02,-0.005,-0.034,104.0,103.0,102.0,13.3,1505.2,330.5,-0.8,1.8,2470.148,13.28,0.02,256.0
2021-12-28T01:07:03,42.805,6.029,-0.011,-0.016,-0.05,102.0,101.0,101.0,13.3,1505.2,324.8,-0.8,1.8,2470.139,13.28,0.019,214.5
2021-12-28T01:10:03,42.805,6.029,-0.012,-0.009,-0.023,100.0,102.0,100.0,13.4,1505.2,328.9,-0.8,1.8,2470.162,13.28,0.015,233.1
2021-12-28T01:13:03,42.805,6.029,0.007,-0.006,-0.012,102.0,101.0,100.0,13.4,1505.2,330.4,-0.8,1.8,2470.125,13.28,0.009,130.6
2021-12-28T01:16:03,42.805,6.029,-0.013,-0.021,-0.008,101.0,100.0,100.0,13.4,1505.2,324.6,-0.7,1.8,2470.158,13.28,0.024,211.8
2021-12-28T01:19:03,42.805,6.029,-0.001,-0.011,-0.012,101.0,101.0,100.0,13.4,1505.2,329.4,-0.7,1.8,2470.154,13.28,0.011,185.2
2021-12-28T01:22:03,42.805,6.029,0.027,-0.03,-0.018,100.0,101.0,99.0,13.4,1505.2,327.9,-0.8,1.9,2470.132,13.28,0.04,138.0
2021-12-28T01:25:03,42.805,6.029,0.019,0.005,0.009,101.0,101.0,99.0,13.3,1505.2,328.8,-0.8,1.8,2470.155,13.28,0.019,75.3
2021-12-28T01:28:03,42.805,6.029,-0.004,-0.007,-0.01,101.0,100.0,100.0,13.3,1505.2,326.8,-0.7,1.8,2470.234,13.28,0.008,209.7
2021-12-28T01:31:03,42.805,6.029,-0.004,-0.008,-0.02,101.0,100.0,100.0,13.4,1505.2,329.0,-0.8,1.8,2470.147,13.28,0.008,206.6
2021-12-28T01:34:03,42.805,6.029,0.011,-0.001,-0.028,101.0,100.0,99.0,13.3,1505.2,326.9,-0.8,1.8,2470.171,13.28,0.011,95.2
2021-12-28T01:37:03,42.805,6.029,-0.009,-0.01,-0.026,101.0,101.0,100.0,13.4,1505.2,328.2,-0.8,1.8,2470.098,13.28,0.013,222.0
2021-12-28T01:40:03,42.805,6.029,-0.015,-0.005,-0.056,101.0,101.0,100.0,13.3,1505.2,328.2,-0.7,1.8,2470.085,13.28,0.015,251.6
2021-12-28T01:43:03,42.805,6.029,0.007,-0.059,-0.039,100.0,101.0,100.0,13.3,1505.2,330.8,-0.7,1.8,2470.175,13.28,0.059,173.2
2021-12-28T01:46:03,42.805,6.029,0.009,0.005,0.014,103.0,101.0,100.0,13.4,1505.2,325.6,-0.8,1.8,2470.179,13.28,0.01,60.9
2021-12-28T01:49:03,42.805,6.029,0.017,-0.015,0.01,100.0,101.0,100.0,13.4,1505.2,323.9,-0.8,1.8,2470.125,13.28,0.022,131.4
2021-12-28T01:52:03,42.805,6.029,-0.02,-0.015,-0.029,100.0,101.0,100.0,13.4,1505.2,327.5,-0.8,1.8,2470.179,13.28,0.025,233.1
2021-12-28T01:55:03,42.805,6.029,0.014,-0.01,-0.017,102.0,101.0,100.0,13.4,1505.2,324.3,-0.8,1.8,2470.164,13.28,0.017,125.5
2021-12-28T01:58:03,42.805,6.029,-0.003,-0.019,-0.01,101.0,100.0,100.0,13.4,1505.2,331.7,-0.7,1.8,2470.185,13.28,0.019,189.0
2021-12-28T02:04:03,42.805,6.029,-0.008,-0.016,-0.005,100.0,101.0,101.0,13.4,1505.2,331.0,-0.8,1.8,2470.266,13.28,0.017,206.6
2021-12-28T02:07:03,42.805,6.029,-0.006,-0.014,-0.006,102.0,102.0,100.0,13.4,1505.2,327.0,-0.7,1.8,2470.296,13.28,0.015,203.2
2021-12-28T02:10:03,42.805,6.029,-0.002,-0.012,-0.033,101.0,100.0,101.0,13.3,1505.2,329.8,-0.7,1.8,2470.241,13.28,0.012,189.5
2021-12-28T02:13:03,42.805,6.029,-0.006,-0.001,0.028,101.0,100.0,100.0,13.4,1505.2,328.2,-0.8,1.8,2470.301,13.28,0.006,260.5
2021-12-28T02:16:03,42.805,6.029,0.0,-0.013,-0.008,101.0,101.0,101.0,13.4,1505.2,326.2,-0.8,1.8,2470.271,13.28,0.013,180.0
2021-12-28T02:19:03,42.805,6.029,0.006,-0.039,-0.051,102.0,100.0,100.0,13.4,1505.2,327.2,-0.7,1.8,2470.256,13.28,0.039,171.3
2021-12-28T02:22:03,42.805,6.029,0.006,0.003,-0.016,102.0,101.0,101.0,13.3,1505.2,330.6,-0.8,1.8,2470.308,13.28,0.006,63.4
2021-12-28T02:25:03,42.805,6.029,-0.018,-0.008,-0.027,100.0,101.0,100.0,13.4,1505.2,328.2,-0.7,1.8,2470.386,13.29,0.019,246.0
2021-12-28T02:28:03,42.805,6.029,-0.003,-0.006,-0.016,101.0,100.0,100.0,13.4,1505.2,330.9,-0.7,1.8,2470.413,13.29,0.006,206.6
2021-12-28T02:31:03,42.805,6.029,-0.009,-0.014,-0.013,101.0,101.0,99.0,13.3,1505.2,331.2,-0.8,1.8,2470.265,13.29,0.016,212.7
2021-12-28T02:34:03,42.805,6.029,-0.031,0.0,-0.008,101.0,101.0,99.0,13.4,1505.2,328.8,-0.8,1.9,2470.337,13.29,0.03,270.0
2021-12-28T02:37:03,42.805,6.029,0.0,0.0,-0.033,101.0,102.0,100.0,13.4,1505.2,330.2,-0.8,1.8,2470.384,13.29,0.0,0.0
2021-12-28T02:40:03,42.805,6.029,0.006,-0.018,-0.041,102.0,102.0,99.0,13.4,1505.2,325.2,-0.7,1.8,2470.405,13.29,0.018,161.6
2021-12-28T02:43:03,42.805,6.029,-0.015,-0.009,-0.007,102.0,101.0,102.0,13.4,1505.2,325.9,-0.7,1.8,2470.405,13.29,0.017,239.0
2021-12-28T02:46:03,42.805,6.029,-0.011,-0.012,-0.017,101.0,100.0,100.0,13.4,1505.2,325.2,-0.7,1.8,2470.441,13.29,0.016,222.5
2021-12-28T02:49:03,42.805,6.029,-0.024,-0.002,-0.028,100.0,101.0,100.0,13.4,1505.2,326.1,-0.7,1.8,2470.416,13.29,0.024,265.2
2021-12-28T02:52:03,42.805,6.029,0.003,-0.006,-0.016,101.0,101.0,100.0,13.4,1505.2,325.0,-0.7,1.8,2470.49,13.29,0.006,153.4
2021-12-28T02:55:03,42.805,6.029,-0.005,-0.003,-0.025,101.0,102.0,101.0,13.4,1505.2,326.3,-0.7,1.8,2470.472,13.29,0.005,239.0
2021-12-28T02:58:03,42.805,6.029,-0.028,-0.013,-0.06,101.0,100.0,101.0,13.4,1505.2,330.8,-0.7,1.8,2470.561,13.29,0.03,245.1
2021-12-28T03:04:03,42.805,6.029,-0.03,-0.002,-0.01,100.0,100.0,101.0,13.4,1505.2,331.1,-0.8,1.8,2470.604,13.29,0.03,266.2
2021-12-28T03:07:03,42.805,6.029,0.0,-0.022,-0.055,101.0,101.0,100.0,13.4,1505.2,324.6,-0.8,1.8,2470.602,13.29,0.022,180.0
2021-12-28T03:10:03,42.805,6.029,-0.019,-0.018,-0.034,100.0,100.0,99.0,13.3,1505.2,329.6,-0.8,1.8,2470.602,13.29,0.026,226.5
2021-12-28T03:13:03,42.805,6.029,0.005,-0.005,-0.007,101.0,101.0,99.0,13.4,1505.2,328.3,-0.7,1.8,2470.658,13.29,0.007,135.0
2021-12-28T03:16:03,42.805,6.029,0.002,-0.005,0.001,100.0,101.0,100.0,13.4,1505.2,326.4,-0.8,1.8,2470.674,13.29,0.005,158.2
2021-12-28T03:19:03,42.805,6.029,-0.03,-0.055,-0.071,100.0,100.0,100.0,13.4,1505.2,330.2,-0.7,1.8,2470.701,13.29,0.062,208.6
2021-12-28T03:22:03,42.805,6.029,-0.005,-0.004,-0.011,102.0,100.0,101.0,13.4,1505.2,326.9,-0.8,1.8,2470.729,13.29,0.006,231.3
2021-12-28T03:25:03,42.805,6.029,-0.011,-0.001,-0.005,102.0,101.0,99.0,13.4,1505.2,328.9,-0.7,1.8,2470.743,13.29,0.011,264.8
2021-12-28T03:28:03,42.805,6.029,-0.004,-0.002,-0.006,102.0,101.0,101.0,13.4,1505.2,331.1,-0.7,1.8,2470.755,13.29,0.004,243.4
2021-12-28T03:31:03,42.805,6.029,0.012,-0.022,-0.015,100.0,102.0,100.0,13.4,1505.2,325.9,-0.7,1.8,2470.791,13.29,0.025,151.4
2021-12-28T03:34:03,42.805,6.029,0.011,-0.009,0.001,101.0,102.0,100.0,13.4,1505.2,331.7,-0.8,1.8,2470.811,13.29,0.014,129.3
2021-12-28T03:37:03,42.805,6.029,0.015,-0.012,-0.018,101.0,100.0,100.0,13.4,1505.2,328.5,-0.7,1.8,2470.791,13.29,0.019,128.7
2021-12-28T03:40:03,42.805,6.029,-0.006,-0.013,-0.014,102.0,102.0,99.0,13.3,1505.2,325.0,-0.7,1.8,2470.761,13.29,0.014,204.8
2021-12-28T03:43:03,42.805,6.029,-0.017,-0.015,-0.02,103.0,101.0,99.0,13.4,1505.2,325.9,-0.7,1.8,2470.763,13.29,0.022,228.6
2021-12-28T03:46:03,42.805,6.029,0.003,-0.012,0.002,101.0,102.0,99.0,13.4,1505.2,326.7,-0.7,1.8,2470.753,13.29,0.012,166.0
2021-12-28T03:49:03,42.805,6.029,-0.02,-0.003,-0.017,101.0,101.0,99.0,13.4,1505.2,326.9,-0.7,1.8,2470.736,13.29,0.02,261.5
2021-12-28T03:52:03,42.805,6.029,-0.009,-0.006,-0.004,101.0,102.0,100.0,13.3,1505.2,324.3,-0.8,1.8,2470.685,13.29,0.01,236.3
2021-12-28T03:55:03,42.805,6.029,-0.003,-0.02,-0.051,101.0,101.0,102.0,13.4,1505.2,331.0,-0.7,1.8,2470.68,13.29,0.02,188.5
2021-12-28T03:58:03,42.805,6.029,-0.022,0.003,-0.009,101.0,100.0,99.0,13.4,1505.2,328.6,-0.7,1.8,2470.68,13.29,0.022,277.8
2021-12-28T04:04:03,42.805,6.029,-0.004,-0.022,0.001,101.0,101.0,101.0,13.4,1505.2,323.7,-0.8,1.8,2470.658,13.29,0.022,190.3
2021-12-28T04:07:03,42.805,6.029,-0.032,0.016,-0.028,102.0,98.0,100.0,13.4,1505.2,327.9,-0.7,1.8,2470.653,13.29,0.035,296.6
2021-12-28T04:10:03,42.805,6.029,-0.02,-0.004,-0.015,101.0,100.0,100.0,13.4,1505.2,330.0,-0.8,1.8,2470.641,13.29,0.02,258.7
2021-12-28T04:13:03,42.805,6.029,-0.01,-0.026,-0.034,101.0,101.0,100.0,13.4,1505.2,324.5,-0.8,1.9,2470.631,13.29,0.027,201.0
2021-12-28T04:16:03,42.805,6.029,-0.008,-0.004,-0.04,102.0,101.0,99.0,13.3,1505.2,328.4,-0.8,1.8,2470.669,13.29,0.008,243.4
2021-12-28T04:19:03,42.805,6.029,0.011,-0.016,-0.02,101.0,101.0,100.0,13.3,1505.2,331.3,-0.7,1.8,2470.622,13.29,0.019,145.5
2021-12-28T04:22:03,42.805,6.029,-0.006,-0.039,-0.062,101.0,102.0,99.0,13.4,1505.2,324.3,-0.7,1.8,2470.595,13.29,0.039,188.7
2021-12-28T04:25:03,42.805,6.029,-0.014,-0.021,-0.013,102.0,101.0,100.0,13.4,1505.2,328.9,-0.7,1.8,2470.583,13.29,0.025,213.7
2021-12-28T04:28:03,42.805,6.029,-0.014,-0.021,-0.017,102.0,100.0,99.0,13.4,1505.2,324.9,-0.7,1.8,2470.576,13.29,0.025,213.7
2021-12-28T04:31:03,42.805,6.029,-0.001,0.001,-0.028,100.0,101.0,100.0,13.4,1505.2,331.4,-0.7,1.8,2470.587,13.29,0.001,315.0
2021-12-28T04:34:03,42.805,6.029,-0.024,-0.019,-0.037,101.0,102.0,100.0,13.3,1505.2,326.4,-0.7,1.8,2470.606,13.29,0.03,231.6
2021-12-28T04:37:03,42.805,6.029,-0.004,0.0,-0.002,100.0,100.0,101.0,13.4,1505.2,328.7,-0.8,1.9,2470.566,13.29,0.004,270.0
2021-12-28T04:40:03,42.805,6.029,-0.017,-0.007,-0.013,101.0,100.0,101.0,13.3,1505.2,329.0,-0.8,1.8,2470.588,13.29,0.018,247.6
2021-12-28T04:43:03,42.805,6.029,-0.038,-0.009,-0.056,100.0,100.0,99.0,13.3,1505.2,327.9,-0.7,1.8,2470.585,13.29,0.039,256.7
2021-12-28T04:46:03,42.805,6.029,-0.021,-0.004,-0.041,102.0,100.0,100.0,13.3,1505.2,329.7,-0.7,1.8,2470.517,13.29,0.021,259.2
2021-12-28T04:49:03,42.805,6.029,-0.016,-0.012,-0.027,101.0,98.0,100.0,13.3,1505.2,331.2,-0.8,1.8,2470.499,13.29,0.02,233.1
2021-12-28T04:52:03,42.805,6.029,-0.018,-0.001,-0.032,101.0,100.0,100.0,13.4,1505.2,326.2,-0.8,1.8,2470.45,13.29,0.018,266.8
2021-12-28T04:55:03,42.805,6.029,-0.004,0.018,0.015,100.0,100.0,100.0,13.3,1505.2,331.3,-0.7,1.8,2470.459,13.29,0.018,347.5
2021-12-28T04:58:03,42.805,6.029,-0.024,-0.015,-0.024,101.0,101.0,100.0,13.3,1505.2,323.7,-0.8,1.8,2470.44,13.29,0.028,238.0
2021-12-28T05:04:03,42.805,6.029,-0.017,0.009,-0.013,101.0,100.0,100.0,13.4,1505.2,326.2,-0.7,1.8,2470.343,13.28,0.019,297.9
2021-12-28T05:07:03,42.805,6.029,-0.021,-0.002,-0.031,100.0,101.0,99.0,13.4,1505.2,329.8,-0.8,1.8,2470.324,13.28,0.021,264.6
2021-12-28T05:10:03,42.805,6.029,-0.026,-0.012,-0.01,101.0,101.0,100.0,13.4,1505.2,331.0,-0.8,1.8,2470.323,13.29,0.028,245.2
2021-12-28T05:13:03,42.805,6.029,-0.007,0.0,-0.023,100.0,101.0,100.0,13.3,1505.2,331.1,-0.8,1.8,2470.302,13.29,0.007,270.0
2021-12-28T05:16:03,42.805,6.029,-0.011,-0.01,-0.035,100.0,101.0,100.0,13.3,1505.2,331.8,-0.8,1.8,2470.268,13.29,0.014,227.7
2021-12-28T05:19:03,42.805,6.029,-0.042,0.002,-0.017,101.0,101.0,101.0,13.4,1505.2,330.8,-0.8,1.8,2470.212,13.29,0.042,272.7
2021-12-28T05:22:03,42.805,6.029,-0.009,-0.003,-0.02,101.0,101.0,100.0,13.4,1505.2,326.4,-0.8,1.9,2470.246,13.29,0.009,251.6
2021-12-28T05:25:03,42.805,6.029,-0.01,-0.016,-0.026,101.0,101.0,100.0,13.4,1505.2,329.4,-0.8,1.8,2470.241,13.29,0.018,212.0
2021-12-28T05:28:03,42.805,6.029,-0.011,-0.002,-0.02,100.0,102.0,100.0,13.4,1505.2,326.7,-0.7,1.8,2470.273,13.29,0.011,259.7
2021-12-28T05:31:03,42.805,6.029,-0.011,-0.015,-0.02,101.0,100.0,100.0,13.4,1505.2,325.0,-0.8,1.8,2470.215,13.29,0.018,216.3
2021-12-28T05:34:03,42.805,6.029,-0.028,0.0,-0.017,101.0,100.0,100.0,13.4,1505.2,331.6,-0.7,1.8,2470.193,13.29,0.028,270.0
2021-12-28T05:37:03,42.805,6.029,-0.019,0.006,-0.002,101.0,101.0,99.0,13.4,1505.2,328.4,-0.8,1.8,2470.199,13.29,0.019,287.5
2021-12-28T05:40:03,42.805,6.029,-0.016,0.0,-0.004,99.0,101.0,101.0,13.4,1505.2,329.6,-0.7,1.8,2470.178,13.29,0.016,270.0
2021-12-28T05:43:03,42.805,6.029,-0.014,-0.002,-0.06,101.0,100.0,100.0,13.3,1505.2,328.0,-0.7,1.8,2470.203,13.29,0.014,261.9
2021-12-28T05:46:03,42.805,6.029,-0.021,0.011,-0.001,100.0,100.0,100.0,13.4,1505.2,327.5,-0.8,1.8,2470.2,13.29,0.023,297.6
2021-12-28T05:49:03,42.805,6.029,0.01,0.002,-0.027,101.0,100.0,101.0,13.4,1505.2,327.0,-0.8,1.8,2470.194,13.29,0.01,78.7
2021-12-28T05:52:03,42.805,6.029,-0.006,0.0,-0.029,101.0,100.0,100.0,13.3,1505.2,328.7,-0.7,1.8,2470.174,13.29,0.006,270.0
2021-12-28T05:55:03,42.805,6.029,-0.006,-0.005,-0.032,100.0,100.0,100.0,13.4,1505.2,326.6,-0.7,1.8,2470.167,13.29,0.007,230.2
2021-12-28T05:58:03,42.805,6.029,-0.046,0.009,-0.037,99.0,101.0,100.0,13.3,1505.2,329.2,-0.8,1.8,2470.182,13.29,0.046,281.1
2021-12-28T06:04:03,42.805,6.029,-0.004,0.007,-0.015,101.0,101.0,101.0,13.3,1505.2,331.0,-0.7,1.8,2470.277,13.29,0.008,330.3
2021-12-28T06:07:03,42.805,6.029,-0.019,0.004,-0.03,101.0,100.0,99.0,13.4,1505.2,329.9,-0.8,1.8,2470.389,13.29,0.019,281.9
2021-12-28T06:10:03,42.805,6.029,0.014,0.007,0.012,100.0,101.0,100.0,13.4,1505.2,330.5,-0.7,1.8,2470.353,13.29,0.015,63.4
2021-12-28T06:13:03,42.805,6.029,0.007,0.016,-0.004,100.0,102.0,100.0,13.3,1505.2,324.8,-0.7,1.8,2470.395,13.29,0.017,23.6
2021-12-28T06:16:03,42.805,6.029,-0.011,-0.004,-0.008,101.0,101.0,99.0,13.4,1505.2,329.6,-0.8,1.8,2470.113,13.29,0.011,250.0
2021-12-28T06:19:03,42.805,6.029,-0.015,0.005,0.002,101.0,101.0,99.0,13.4,1505.2,329.0,-0.8,1.8,2470.105,13.29,0.015,288.4
2021-12-28T06:22:03,42.805,6.029,0.0,-0.004,-0.002,100.0,101.0,100.0,13.3,1505.2,325.5,-0.7,1.8,2470.018,13.29,0.004,180.0
2021-12-28T06:25:03,42.805,6.029,-0.007,0.027,-0.014,100.0,101.0,99.0,13.4,1505.2,328.2,-0.7,1.8,2470.088,13.29,0.027,345.5
2021-12-28T06:28:03,42.805,6.029,-0.016,0.0,-0.019,100.0,103.0,100.0,13.4,1505.2,327.4,-0.8,1.8,2470.102,13.29,0.016,270.0
2021-12-28T06:31:03,42.805,6.029,-0.018,0.0,-0.027,101.0,102.0,101.0,13.3,1505.2,328.3,-0.7,1.8,2470.056,13.29,0.018,270.0
2021-12-28T06:34:03,42.805,6.029,-0.018,0.021,0.017,101.0,101.0,100.0,13.3,1505.2,327.9,-0.7,1.8,2470.083,13.29,0.027,319.4
2021-12-28T06:37:03,42.805,6.029,-0.007,0.017,0.011,101.0,102.0,99.0,13.4,1505.2,325.0,-0.7,1.8,2470.13,13.29,0.018,337.6
2021-12-28T06:40:03,42.805,6.029,-0.014,0.021,-0.01,100.0,100.0,101.0,13.3,1505.2,331.1,-0.8,1.8,2470.118,13.29,0.025,326.3
2021-12-28T06:43:03,42.805,6.029,-0.006,0.0,-0.014,100.0,101.0,99.0,13.4,1505.2,329.2,-0.8,1.8,2470.168,13.29,0.006,270.0
2021-12-28T06:46:03,42.805,6.029,0.001,0.0,0.006,99.0,102.0,100.0,13.4,1505.2,331.7,-0.7,1.8,2470.207,13.29,0.001,90.0
2021-12-28T06:49:03,42.805,6.029,0.003,0.02,0.001,101.0,100.0,99.0,13.4,1505.2,328.3,-0.7,1.8,2470.237,13.29,0.02,8.5
2021-12-28T06:52:03,42.805,6.029,0.022,-0.016,-0.003,99.0,102.0,100.0,13.4,1505.2,330.4,-0.7,1.8,2470.246,13.29,0.027,126.0
2021-12-28T06:55:03,42.805,6.029,-0.021,-0.006,-0.011,101.0,100.0,100.0,13.3,1505.2,324.2,-0.7,1.8,2470.251,13.29,0.021,254.1
2021-12-28T06:58:03,42.805,6.029,-0.011,0.0,-0.004,101.0,100.0,100.0,13.3,1505.2,326.4,-0.8,1.8,2470.264,13.29,0.011,270.0
2021-12-28T07:04:03,42.805,6.029,-0.006,-0.003,-0.019,101.0,101.0,100.0,13.4,1505.2,327.6,-0.7,1.8,2470.292,13.29,0.006,243.4
2021-12-28T07:07:03,42.805,6.029,-0.002,-0.012,-0.03,100.0,102.0,99.0,13.4,1505.2,331.2,-0.7,1.8,2470.26,13.29,0.012,189.5
2021-12-28T07:10:03,42.805,6.029,0.011,-0.005,0.002,100.0,101.0,100.0,13.4,1505.2,327.2,-0.7,1.8,2470.322,13.29,0.012,114.4
2021-12-28T07:13:03,42.805,6.029,-0.009,0.004,-0.004,102.0,100.0,100.0,13.4,1505.2,324.8,-0.7,1.8,2470.298,13.29,0.009,294.0
2021-12-28T07:16:03,42.805,6.029,-0.013,-0.001,-0.005,101.0,100.0,100.0,13.4,1505.2,328.4,-0.8,1.9,2470.29,13.29,0.013,265.6
2021-12-28T07:19:03,42.805,6.029,0.007,0.016,0.0,99.0,101.0,100.0,13.4,1505.2,326.6,-0.7,1.8,2470.27,13.29,0.017,23.6
2021-12-28T07:22:03,42.805,6.029,-0.011,0.003,-0.012,101.0,101.0,100.0,13.4,1505.2,326.3,-0.7,1.8,2470.186,13.29,0.011,285.3
2021-12-28T07:25:03,42.805,6.029,-0.018,-0.015,-0.047,101.0,99.0,99.0,13.3,1505.2,327.5,-0.7,1.8,2470.223,13.29,0.023,230.2
2021-12-28T07:28:03,42.805,6.029,-0.01,-0.008,-0.011,100.0,101.0,101.0,13.4,1505.2,326.0,-0.8,1.8,2470.292,13.29,0.012,231.3
2021-12-28T07:31:03,42.805,6.029,0.016,-0.016,0.019,100.0,101.0,100.0,13.3,1505.2,326.3,-0.7,1.8,2470.336,13.29,0.022,135.0
2021-12-28T07:34:03,42.805,6.029,0.013,-0.012,-0.033,103.0,99.0,99.0,13.4,1505.2,328.5,-0.7,1.8,2470.376,13.29,0.017,132.7
2021-12-28T07:37:03,42.805,6.029,0.013,0.0,0.008,101.0,101.0,100.0,13.3,1505.2,324.2,-0.7,1.8,2470.424,13.29,0.013,90.0
2021-12-28T07:40:03,42.805,6.029,-0.007,0.0,0.0,100.0,103.0,100.0,13.3,1505.2,325.8,-0.8,1.8,2470.456,13.29,0.007,270.0
2021-12-28T07:43:03,42.805,6.029,-0.006,0.004,0.005,101.0,102.0,99.0,13.3,1505.2,329.9,-0.7,1.9,2470.529,13.29,0.007,303.7
2021-12-28T07:46:03,42.805,6.029,0.025,-0.023,-0.039,100.0,101.0,100.0,13.4,1505.2,329.1,-0.7,1.8,2470.497,13.29,0.033,132.6
2021-12-28T07:49:03,42.805,6.029,0.01,0.004,0.02,100.0,100.0,100.0,13.4,1505.2,327.6,-0.8,1.8,2470.521,13.29,0.01,68.2
2021-12-28T07:52:03,42.805,6.029,0.01,0.007,-0.006,101.0,101.0,100.0,13.4,1505.2,328.7,-0.7,1.8,2470.611,13.29,0.012,55.0
2021-12-28T07:55:03,42.805,6.029,0.004,-0.005,-0.011,101.0,101.0,101.0,13.4,1505.2,331.1,-0.8,1.8,2470.598,13.29,0.006,141.3
2021-12-28T07:58:03,42.805,6.029,0.02,-0.008,-0.02,101.0,100.0,100.0,13.3,1505.2,324.7,-0.8,1.8,2470.598,13.29,0.021,111.8
2021-12-28T08:04:03,42.805,6.029,-0.022,0.017,0.01,100.0,100.0,99.0,13.4,1505.2,331.3,-0.8,1.8,2470.632,13.28,0.027,307.7
2021-12-28T08:07:03,42.805,6.029,-0.014,0.0,-0.005,101.0,101.0,99.0,13.3,1505.2,324.0,-0.8,1.8,2470.639,13.28,0.014,270.0
2021-12-28T08:10:03,42.805,6.029,0.0,0.006,0.0,101.0,101.0,100.0,13.3,1505.2,326.8,-0.8,1.8,2470.617,13.28,0.006,0.0
2021-12-28T08:13:03,42.805,6.029,0.007,0.008,-0.013,100.0,102.0,100.0,13.3,1505.2,331.2,-0.8,1.8,2470.611,13.28,0.01,41.2
2021-12-28T08:16:03,42.805,6.029,-0.011,0.014,-0.006,99.0,102.0,100.0,13.4,1505.2,331.1,-0.7,1.8,2470.59,13.28,0.017,321.8
2021-12-28T08:19:03,42.805,6.029,0.027,-0.005,-0.009,100.0,101.0,99.0,13.3,1505.2,326.2,-0.8,1.8,2470.479,13.28,0.027,100.5
2021-12-28T08:22:03,42.805,6.029,0.0,0.001,0.01,102.0,102.0,99.0,13.4,1505.2,329.6,-0.8,1.8,2470.532,13.28,0.001,0.0
2021-12-28T08:25:03,42.805,6.029,-0.006,-0.003,-0.013,100.0,100.0,100.0,13.3,1505.2,328.6,-0.7,1.8,2470.552,13.28,0.006,243.4
2021-12-28T08:28:03,42.805,6.029,0.013,0.012,-0.02,101.0,102.0,99.0,13.3,1505.2,327.3,-0.7,1.8,2470.535,13.28,0.017,47.3
2021-12-28T08:31:03,42.805,6.029,-0.003,-0.003,-0.011,99.0,102.0,101.0,13.4,1505.2,329.1,-0.7,1.8,2470.59,13.28,0.004,225.0
2021-12-28T08:34:03,42.805,6.029,0.002,0.0,0.003,100.0,101.0,101.0,13.3,1505.2,325.7,-0.7,1.8,2470.576,13.28,0.002,90.0
2021-12-28T08:37:03,42.805,6.029,-0.002,-0.014,-0.016,101.0,100.0,100.0,13.3,1505.2,327.9,-0.8,1.8,2470.547,13.28,0.014,188.1
2021-12-28T08:40:03,42.805,6.029,0.011,0.005,-0.018,100.0,102.0,100.0,13.4,1505.2,326.8,-0.7,1.8,2470.603,13.28,0.012,65.6
2021-12-28T08:43:03,42.805,6.029,0.001,-0.002,0.004,100.0,102.0,101.0,13.4,1505.2,330.5,-0.7,1.8,2470.597,13.28,0.002,153.4
2021-12-28T08:46:03,42.805,6.029,-0.003,-0.002,-0.025,103.0,102.0,100.0,13.4,1505.2,326.0,-0.8,1.8,2470.555,13.28,0.003,236.3
2021-12-28T08:49:03,42.805,6.029,-0.01,-0.006,-0.016,100.0,103.0,99.0,13.4,1505.2,325.9,-0.7,1.8,2470.601,13.28,0.011,239.0
2021-12-28T08:52:03,42.805,6.029,0.023,-0.001,-0.001,100.0,102.0,99.0,13.4,1505.2,327.5,-0.8,1.8,2470.624,13.28,0.023,92.5
2021-12-28T08:55:03,42.805,6.029,0.015,0.006,-0.021,101.0,102.0,100.0,13.4,1505.2,325.8,-0.7,1.8,2470.658,13.28,0.016,68.2
2021-12-28T08:58:03,42.805,6.029,0.022,-0.021,-0.024,101.0,102.0,100.0,13.4,1505.2,325.1,-0.8,1.9,2470.649,13.28,0.03,133.7
2021-12-28T09:04:03,42.805,6.029,0.009,-0.001,0.043,101.0,102.0,100.0,13.4,1505.2,330.0,-0.7,1.8,2470.652,13.28,0.009,96.3
2021-12-28T09:07:03,42.805,6.029,-0.004,-0.011,-0.039,100.0,101.0,100.0,13.4,1505.2,324.9,-0.7,1.8,2470.607,13.28,0.011,200.0
2021-12-28T09:10:03,42.805,6.029,-0.004,-0.01,-0.026,100.0,101.0,100.0,13.4,1505.2,328.8,-0.8,1.8,2470.616,13.28,0.01,201.8
2021-12-28T09:13:03,42.805,6.029,0.022,0.002,0.018,102.0,100.0,99.0,13.4,1505.2,326.0,-0.7,1.8,2470.605,13.28,0.022,84.8
2021-12-28T09:16:03,42.805,6.029,0.009,0.001,-0.005,102.0,101.0,99.0,13.4,1505.2,330.8,-0.7,1.9,2470.571,13.28,0.009,83.7
2021-12-28T09:19:03,42.805,6.029,0.019,0.033,0.04,101.0,102.0,99.0,13.3,1505.2,327.6,-0.7,1.8,2470.633,13.28,0.038,29.9
2021-12-28T09:22:03,42.805,6.029,-0.003,-0.005,-0.022,102.0,101.0,100.0,13.3,1505.2,331.6,-0.7,1.8,2470.616,13.28,0.005,211.0
2021-12-28T09:25:03,42.805,6.029,-0.001,-0.006,-0.024,101.0,101.0,99.0,13.4,1505.2,325.9,-0.7,1.9,2470.644,13.28,0.006,189.5
2021-12-28T09:28:03,42.805,6.029,-0.023,-0.001,-0.036,99.0,103.0,101.0,13.4,1505.2,328.4,-0.8,1.8,2470.646,13.28,0.023,267.5
2021-12-28T09:31:03,42.805,6.029,0.023,-0.033,-0.016,100.0,100.0,100.0,13.4,1505.2,326.1,-0.8,1.8,2470.64,13.28,0.04,145.1
2021-12-28T09:34:03,42.805,6.029,-0.006,0.001,-0.005,100.0,101.0,100.0,13.4,1505.2,326.9,-0.7,1.8,2470.655,13.28,0.006,279.5
2021-12-28T09:37:03,42.805,6.029,-0.004,0.008,-0.019,101.0,101.0,100.0,13.3,1505.2,329.2,-0.7,1.8,2470.658,13.28,0.008,333.4
2021-12-28T09:40:03,42.805,6.029,0.018,0.008,-0.008,101.0,101.0,101.0,13.4,1505.2,330.6,-0.7,1.8,2470.629,13.28,0.019,66.0
2021-12-28T09:43:03,42.805,6.029,0.007,-0.006,0.0,101.0,101.0,100.0,13.4,1505.2,326.9,-0.7,1.8,2470.575,13.28,0.009,130.6
2021-12-28T09:46:03,42.805,6.029,0.004,-0.007,-0.016,101.0,101.0,100.0,13.3,1505.2,324.9,-0.7,1.9,2470.566,13.28,0.008,150.3
2021-12-28T09:49:03,42.805,6.029,0.038,-0.016,0.038,101.0,101.0,100.0,13.4,1505.2,326.5,-0.8,1.8,2470.629,13.28,0.041,112.8
2021-12-28T09:52:03,42.805,6.029,0.0,0.006,0.021,101.0,101.0,100.0,13.4,1505.2,325.1,-0.8,1.8,2470.579,13.28,0.006,0.0
2021-12-28T09:55:03,42.805,6.029,-0.01,-0.004,-0.007,101.0,100.0,100.0,13.4,1505.2,328.6,-0.7,1.8,2470.558,13.28,0.01,248.2